Regional Weather Roundup
Issued by NWS Wakefield, VA

Home | Current Version | Previous Version | Text Only | Print | Product List | Glossary On
Versions: 1 2 3 4 5 6 7 8 9 10 11 12 13 14 15 16 17 18 19 20 21 22 23 24 25 26 27
000
ASUS41 KAKQ 290115
RWRAKQ

REGIONAL WEATHER ROUNDUP
NATIONAL WEATHER SERVICE WAKEFIELD VA
900 PM EDT WED JUN 28 2017

Note: "fair" indicates few or no clouds below 12,000 feet with no
significant weather and/or obstructions to visibility. * = Denotes
station may not report precipitation (e.g., rain,snow,etc.),
thunder or fog.

VAZ042-051-052>054-056-290200-
NORTHERN VIRGINIA

CITY           SKY/WX    TMP DP  RH WIND       PRES   REMARKS
WASH NATIONAL  MOCLDY    76  55  48 S13       30.14R
DULLES         PTCLDY    72  52  49 S8        30.14R
FORT BELVOIR   PTCLDY    73  56  55 S3        30.14R
QUANTICO       PTCLDY    76  58  53 SW8       30.15R
FREDERICKSBRG* CLEAR     70  57  63 S7        30.14S
STAFFORD*      CLEAR     67  56  69 CALM      30.19R
WARRENTON      PTCLDY    71  51  48 S5        30.14S
CULPEPER*      CLEAR     67  57  69 CALM      30.15R
MANASSAS*      CLEAR     67  57  70 S5        30.15R
LEESBURG*      PTCLDY    73  57  56 S7        30.14S
WINCHESTER     CLEAR     66  54  63 SE5       30.12F
FRONT ROYAL*   CLEAR     70  52  52 S5        30.12S
LURAY*         CLEAR     68  55  64 CALM      30.14S
$$

VAZ048-049-060>072-079>083-290200-
CENTRAL AND SOUTH CENTRAL VIRGINIA

CITY           SKY/WX    TMP DP  RH WIND       PRES   REMARKS
RICHMOND       PTCLDY    71  56  58 SE6       30.16S
CHESTERFIELD*  NOT AVBL
PETERSBURG*    CLEAR     62  58  88 CALM      30.17S
HANOVER        CLEAR     66  57  72 CALM      30.17S
TAPPAHANNOCK*  CLEAR     70  44  38 SE3       30.18R
QUINTON*       FAIR      67  62  83 CALM      30.16S
CHARLOTTSVILLE CLEAR     70  56  61 S3        30.15R
GORDONSVILLE*  CLEAR     69  56  65 CALM      30.15R
ORANGE*        CLEAR     70  54  56 CALM      30.15R
LOUISA*        CLEAR     68  61  77 CALM      30.15R
BUMPASS*       FAIR      67  57  69 S3        30.15S
FARMVILLE*     CLEAR     70  52  53 CALM      30.15R
CREWE*         FAIR      65  61  87 CALM      30.17S
FORT PICKETT*  FAIR      66  51  57 S8        30.17S
CHASE CITY*    FAIR      67  60  80 CALM      30.17S
CLARKSVILLE*   FAIR      64  63  94 CALM      30.17S
SOUTH HILL*    CLEAR     66  62  87 CALM      30.23S
LAWRENCEVILLE* FAIR      68  56  67 CALM      30.17S
EMPORIA*       CLEAR     64  55  72 CALM      30.18F
$$

VAZ088>098-290200-
SOUTHEAST VIRGINIA

CITY           SKY/WX    TMP DP  RH WIND       PRES   REMARKS
NORFOLK        CLEAR     72  54  53 SE8       30.18S
VIRGINIA BEACH PTCLDY    70  53  54 SE7       30.18S
NORFOLK NAVAL  PTCLDY    71  52  50 SE3       30.19S
WEST POINT*    CLEAR     69  55  59 SE8       30.19R
SALUDA*        FAIR      69  59  69 S5        30.17S
NEWPORT NEWS   CLEAR     71  54  54 SE6       30.17F
LANGLEY AFB    CLEAR     72  53  51 S6        30.17F
FORT EUSTIS    CLEAR     72  55  55 SE6       30.15S
WILLIAMSBURG*  CLEAR     72  59  64 CALM      30.18S
HR EXEC AP*    FAIR      66  52  59 SE6       30.16F
FRANKLIN*      NOT AVBL
US460-WAKEFLD  CLEAR     71  58  63 CALM      30.17S
$$

VAZ020-022-025-037-045-290200-
WEST CENTRAL AND SOUTHWEST VIRGINIA

CITY           SKY/WX    TMP DP  RH WIND       PRES   REMARKS
STAUNTON*      CLEAR     69  52  55 S3        30.18R
WAYNESBORO*    CLEAR     68  55  62 CALM      30.17S
HOT SPRINGS VA CLEAR     61  43  51 S8        30.26S
LYNCHBURG      CLEAR     68  55  63 S5        30.17S
DANVILLE       CLEAR     71  58  63 SE3       30.17R
SOUTH BOSTON*  FAIR      69  60  73 CALM      30.17S
MARTINSVILLE   CLEAR     66  61  82 CALM      30.20R
ROANOKE        PTCLDY    72  57  59 SE8       30.18S
BLACKSBURG     CLEAR     71  55  58 SE6       30.23R
DUBLIN*        CLEAR     72  50  45 S6        30.20R
MARION*        CLEAR     70  53  54 CALM      30.23R
HILLSVILLE*    PTCLDY    66  51  58 CALM      30.22S
RICHLANDS*     FAIR      71  50  46 SE3       30.19S
WISE*          CLEAR     68  52  56 CALM      30.20S
ABINGDON*      MOCLDY    75  57  53 S7        30.17R
$$

MDZ021>025-VAZ099-100-290200-
SOUTHERN MARYLAND AND THE DELMARVA PENINSULA

CITY           SKY/WX    TMP DP  RH WIND       PRES   REMARKS
PATUXENT RIVER CLOUDY    70  54  56 S7        30.16S
BAY BRIDGE APT CLOUDY    73  55  53 S7        30.14S
LEONARDTOWN    CLOUDY    70  54  56 S3        30.18R
DOVER          CLOUDY    69  60  72 SE9       30.13S
GEORGETOWN       N/A     69  56  62 S6        30.17R
EASTON         CLEAR     73  54  49 S6        30.19R
CAMBRIDGE      CLEAR     68  57  68 CALM      30.16R
SALISBURY      CLEAR     67  58  72 S8        30.16S
OCEAN CITY     CLEAR     69  60  73 SW7       30.17F
WALLOPS ISLAND PTCLDY    68  59  73 S10       30.18S
ACCOMACK*      CLEAR     67  57  70 SE6       30.17F
$$

NCZ012>017-030>032-290200-
NORTH CENTRAL AND EASTERN NORTH CAROLINA

CITY           SKY/WX    TMP DP  RH WIND       PRES   REMARKS
ROANOKE RAPIDS FAIR      66  59  77 CALM      30.17S
RALEIGH        PTCLDY    73  55  53 SE3       30.18S
ELIZABETH CITY CLEAR     71  61  70 E7        30.19S
AHOSKIE*         N/A     67  62  84 CALM      30.18S
EDENTON*       CLEAR     73  62  68 CALM      30.19S
CURRITUCK*     CLEAR     71  60  68 CALM      30.20S
KILL DEVIL HLS CLEAR     70  58  65 E5        30.18F
MANTEO         CLEAR     70  60  71 SE9       30.19F
CAPE HATTERAS  NOT AVBL
TARBORO*       NOT AVBL
GOLDSBORO      CLEAR     73  61  65 SE3       30.16R
WASHINGTON     CLEAR    N/A N/A N/A SE3       30.18S
GREENVILLE     CLEAR     70  59  68 CALM      30.19R
NEW BERN       PTCLDY    74  61  63 SE3       30.19S
WILMINGTON     CLEAR     76  60  57 E6        30.18R
$$

VAZ048-290200-
ELSEWHERE

CITY           SKY/WX    TMP DP  RH WIND       PRES   REMARKS
HARRISBURG PA  MOCLDY    72  55  55 SW9       30.10F
BALTIMORE      MOCLDY    71  57  61 SE3       30.13S
ANNAPOLIS      MOCLDY    71  59  65 S7        30.14R
ANDREWS AFB    PTCLDY    72  53  51 S7        30.14R
PHILADELPHIA   MOCLDY    75  50  41 SW10      30.12S
HENDERSON NC   CLEAR     67  58  70 S3        30.18F
GREENSBORO     PTCLDY    73  59  61 S8        30.17S
ROCKY MOUNT    CLEAR     70  62  76 CALM      30.17S
$$

VAZ100-290200-
MARINE

STATION/POSITION TIME  TEMP    WIND        PRES    WAVE   SWELL
                       AIR SEA DIR/SP/G            HT/PER HT/PER
                 (UTC) (F)     (DEG/KT/KT) (MB)    (FT/S) (FT/S)
BRANDYWINE LGT   0048          190/ 17/ 19 1021.3F
CAPE MAY NJ      0048   68 72  170/  9/ 11 1021.0S
LEWES DE         0048   69 71  190/  4/  6 1021.3R
15NM E FENWICK I 0050   70 70  190/ 12/ 14 1022.0F   1/12   2/12
OCEAN-CITY-INLET 0048   69 72  210/ 10/ 12 1021.9F
WACHAPREAGUE VA  0048   71 80  120/  3/  6 1021.6F
THOMAS POINT MD  0100   76 77  200/ 16/ 17   N/A
GOOSES REEF MD   0050   75     180/ 16/ 17 1021.6R
COVE POINT MD    0048   73     200/ 14/ 19 1021.8R
SOLOMONS ISLAND  0048   72 78  170/ 10/ 13   N/A
BISHOPS HEAD MD  0048   74 80  180/ 11/ 14 1021.3S
PINEY POINT MD   0048          180/ 13/ 15   N/A
POTOMAC MD       0050   75     190/ 12/ 14 1020.5F
CAMBRIDGE MD     0048   72 82              1021.8R
LEWISETTA VA     0048   72 79  180/  7/  8 1021.3S
RAPPAHANNOCK LGT 0048          160/ 12/ 14 1022.4S
STINGRAY PT      0050   74     200/ 12/ 16 1021.5F
YORK RVR RNG VA  0048   74     170/ 15/ 17 1022.0F
YORKTOWN VA      0048   73 79  160/  7/  9 1021.4F
JAMESTOWN VA     0050   75     110/  8/ 10   N/A
DOMINION TERM VA 0048   74     140/ 12/ 16 1021.9R
KIPTOPEKE VA     0048      76  150/  6/  8   N/A
CHES BAY BRIDGE  0048   73 77  180/ 11/ 14 1022.0R
CAPE HENRY VA    0048   71     150/  7/  9   N/A
WILLOUBY STN VA  0048   73     150/ 11/ 12 1021.7S
S CRANEY ISL VA  0048   74     150/ 10/ 13 1021.9R
CAPE HENRY BUOY  0030      72                N/A     2/ 4
1ST LANDING BUOY 0000   74 76              1022.0    1/ 3
CAPE CHARLES BUO 0051      70                N/A     2/ 5
64NM E OF VA BCH 0050   71 74  110/ 10/ 12 1022.6F   2/ 5   2/ 5
DUCK PIER NC     0048   72 75  110/ 12/ 14 1021.9F
44100 DUCK FRF   0005      73                N/A     2/ 5
OREGON INLET NC  0048           80/  9/ 11 1022.2F
HATTERAS NC      0048   74 78   90/  6/  8 1022.1F
DIAMOND SHLS NC  0050   78 83   40/ 10/ 14 1021.8F   2/ 7   2/ 7
CAPE LOOKOUT NC  0000   79      80/ 11/ 13 1021.7R
$$




USA.gov is the U.S. government's official web portal to all federal, state and local government web resources and services.